Wolf Point, MT

9:50 PM MST on February 08, 2016 (GMT -0700)
Clayton

Weather History for KOLF - August, 2013

Change the Weather History Date:

Monday, August 12, 2013

  Actual Average Record
Temperature  
Mean Temperature 69 °F -  
Max Temperature 82 °F 87 °F 104 °F (2015)
Min Temperature 55 °F 55 °F 44 °F (2004)
Degree Days  
Heating Degree Days 0    
Cooling Degree Days 4    
Growing Degree Days 18 (Base 50)    
Moisture  
Dew Point 54 °F    
Average Humidity 63    
Maximum Humidity 90    
Minimum Humidity 37    
Precipitation  
Precipitation 0.00 in 0.05 in 0.27 in (2010)
Month to date precipitation 1.02 0.59  
Year to date precipitation 11.03 8.98  
Sea Level Pressure  
Sea Level Pressure 30.10 in    
Wind  
Wind Speed 7 mph (East)    
Max Wind Speed 15 mph    
Max Gust Speed 21 mph    
Visibility 10 miles    
Events      
T = Trace of Precipitation, MM = Missing Value Source: NWS Daily Summary

Daily Weather History Graph

Daily Weather History Graph

Search for Another Location

Airport or City:

Trip Planner

Search our weather history database for the weather conditions in past years. The results will help you decide how hot, cold, wet, or windy it might be!

Date:

Astronomy

Aug. 12, 2013 Rise Set
Actual Time 5:53 AM MDT 8:20 PM MDT
Civil Twilight 5:18 AM MDT 8:54 PM MDT
Nautical Twilight 4:34 AM MDT 9:38 PM MDT
Astronomical Twilight 3:44 AM MDT 10:28 PM MDT
Moon 12:19 PM MDT (8/12) 10:41 PM MDT (8/12)
Length of Visible Light 15h 36m
Length of Day
14h 27m
Waxing Crescent, 32% of the Moon is Illuminated
Aug 12
Waxing Crescent
Aug 14
First Quarter
Aug 20
Full
Aug 28
Last Quarter
Sep 5
New

Hourly Weather History & Observations

Time (MDT) Temp. Heat Index Dew Point Humidity Pressure Visibility Wind Dir Wind Speed Gust Speed Precip Events Conditions
12:53 AM 57.9 °F - 53.1 °F 84% 30.10 in 10.0 mi ENE 5.8 mph - N/A   Clear
1:53 AM 57.9 °F - 52.0 °F 81% 30.09 in 10.0 mi East 6.9 mph - N/A   Clear
2:53 AM 57.0 °F - 52.0 °F 83% 30.09 in 10.0 mi ENE 4.6 mph - N/A   Clear
3:53 AM 57.0 °F - 52.0 °F 83% 30.08 in 10.0 mi ENE 6.9 mph - N/A   Clear
4:53 AM 55.0 °F - 52.0 °F 89% 30.09 in 10.0 mi East 3.5 mph - N/A   Clear
5:53 AM 55.0 °F - 52.0 °F 89% 30.10 in 10.0 mi East 3.5 mph - N/A   Clear
6:53 AM 55.9 °F - 53.1 °F 90% 30.10 in 10.0 mi ENE 3.5 mph - N/A   Clear
7:53 AM 60.1 °F - 54.0 °F 80% 30.12 in 10.0 mi East 5.8 mph - N/A   Clear
8:53 AM 64.0 °F - 53.1 °F 67% 30.12 in 10.0 mi East 8.1 mph - N/A   Clear
9:53 AM 68.0 °F - 54.0 °F 61% 30.12 in 10.0 mi East 10.4 mph - N/A   Clear
10:53 AM 73.0 °F - 55.0 °F 53% 30.12 in 10.0 mi East 11.5 mph - N/A   Clear
11:53 AM 78.1 °F - 55.0 °F 45% 30.11 in 10.0 mi East 15.0 mph - N/A   Clear
12:53 PM 81.0 °F 80.4 °F 53.1 °F 38% 30.10 in 10.0 mi East 11.5 mph - N/A   Clear
1:53 PM 81.0 °F 80.7 °F 55.0 °F 41% 30.09 in 10.0 mi East 13.8 mph 20.7 mph N/A   Clear
2:53 PM 81.0 °F 80.7 °F 55.0 °F 41% 30.09 in 10.0 mi East 10.4 mph - N/A   Clear
3:53 PM 82.0 °F 81.2 °F 53.1 °F 37% 30.09 in 10.0 mi East 11.5 mph - N/A   Clear
4:53 PM 80.1 °F 80.0 °F 54.0 °F 40% 30.08 in 10.0 mi East 12.7 mph - N/A   Clear
5:53 PM 80.1 °F 80.1 °F 55.0 °F 42% 30.07 in 10.0 mi East 10.4 mph - N/A   Clear
6:53 PM 77.0 °F - 55.0 °F 47% 30.06 in 10.0 mi East 9.2 mph - N/A   Clear
7:53 PM 73.0 °F - 55.9 °F 55% 30.08 in 10.0 mi East 6.9 mph - N/A   Clear
8:53 PM 66.0 °F - 55.0 °F 68% 30.10 in 10.0 mi ENE 6.9 mph - N/A   Clear
9:53 PM 63.0 °F - 54.0 °F 72% 30.11 in 10.0 mi ENE 6.9 mph - N/A   Clear
10:53 PM 63.0 °F - 52.0 °F 67% 30.12 in 10.0 mi ENE 6.9 mph - N/A   Clear
11:53 PM 61.0 °F - 51.1 °F 70% 30.12 in 10.0 mi East 6.9 mph - N/A   Clear